Track APRIZESAT 4 now! 10-day predictions APRIZESAT 4 is classified as:
1 35684U 09041D 21058.44550573 .00000103 00000-0 21287-4 0 9997 2 35684 98.3018 51.0375 0048366 75.4116 285.2451 14.79340124624834